Regional Weather Roundup
Issued by NWS

Home | Current Version | Previous Version | Text Only | Print | Product List | Glossary On
Versions: 1 2 3 4 5 6 7 8 9 10 11 12 13 14 15 16 17 18 19 20 21 22 23 24 25 26 27 28 29 30 31 32 33 34 35 36 37 38 39 40 41 42 43 44 45 46 47 48 49 50
000
ASUS44 KJAN 271610
RWRMS

MISSISSIPPI HOURLY WEATHER ROUNDUP
NATIONAL WEATHER SERVICE JACKSON MS
1000 AM CST THU NOV 27 2014

NOTE: "FAIR: INDICATES FEW OR NO CLOUDS BELOW 12,000 FEET WITH NO
SIGNIFICANT WEATHER AND/OR OBSTRUCTIONS TO VISIBILITY.

MSZ001>002-007>008-010>013-018>021-025>028-034>036-271700-
NORTHWEST MISSISSIPPI

CITY           SKY/WX    TMP DP  RH WIND       PRES   REMARKS
CLARKSDALE     PTSUNNY   41  30  65 N10G20    30.53R
CLEVELAND      CLOUDY    40  31  69 N14G20    30.53R WCI  33
GREENWOOD      CLOUDY    44  30  57 N12G21    30.51R
GREENVILLE     MOSUNNY   43  30  60 N13       30.53R
GRENADA        CLOUDY    39  30  70 N5        30.51R
OLIVE BRANCH   PTSUNNY   37  32  81 MISG      30.48R
OXFORD         CLOUDY    37  27  65 N9        30.50R WCI  31
TUNICA         CLOUDY    41  32  70 N10       30.52R
$$

MSZ003>006-009-014>017-022>024-029>033-037>039-271700-
NORTHEAST MISSISSIPPI

CITY           SKY/WX    TMP DP  RH WIND       PRES   REMARKS
COLUMBUS AFB   CLOUDY    42  29  59 NW10      30.47R
CORINTH        CLOUDY    41  30  65 NW9G16    30.45S
GOLDN TRIANGLE PTSUNNY   41  28  60 N9        30.47R
STARKVILLE     CLOUDY    41  32  70 NW7       30.48R
TUPELO         CLOUDY    40  29  64 MISG      30.46R
$$

MSZ040-058-271700-
CENTRAL MISSISSIPPI

CITY           SKY/WX    TMP DP  RH WIND       PRES   REMARKS
JACKSON INTL   SUNNY     46  29  51 N10       30.49R
JACKSON HAWKNS SUNNY     46  28  49 N9        30.49R
MERIDIAN KEY   SUNNY     46  29  51 N16G23    30.45R
MERIDIAN NAS   SUNNY     46  29  51 N12       30.46R
RAYMOND        FAIR      46  41  81 N10       30.50R
VICKSBURG      SUNNY     47  30  51 N13       30.53R
$$

MSZ059>079-271700-
SOUTH MISSISSIPPI

CITY           SKY/WX    TMP DP  RH WIND       PRES   REMARKS
BROOKHAVEN     FAIR      46  32  57 NW8       30.49R
HATTIESBURG    SUNNY     50  31  48 N10G21    30.47R
MCCOMB         SUNNY     49  29  46 N13       30.47R
NATCHEZ        SUNNY     48  28  46 N14G20    30.51R
PINE BELT      SUNNY     50  30  46 N16G22    30.47R
$$

MSZ080>082-271700-
COASTAL MISSISSIPPI

CITY           SKY/WX    TMP DP  RH WIND       PRES   REMARKS
BAY ST LOUIS   SUNNY     54  28  37 N12G18    30.44R
BILOXI         SUNNY     55  34  45 VRB6      30.42R
PASCAGOULA     SUNNY     55  34  45 N14G22    30.41R
GULFPORT       SUNNY     54  33  45 N14       30.42R
$$


USA.gov is the U.S. government's official web portal to all federal, state and local government web resources and services.